User: anonymous
Location: Vancouver
(49.2500°N, 123.1330°W)
Time: 01:46:31
(UTC-07:00)
Language:

JAS-1B - Orbit

View from above orbital plane
View from above orbital plane
View from above satellite
View from above satellite

Ground track
Ground track

The orbit data is extracted from the following two-line orbital elements,

1 20480U 90013C   14293.48891345  .00000005  00000-0  76459-4 0  8795
2 20480 099.0621 233.1384 0540894 070.0642 042.7723 12.83397303157205
Epoch (UTC): 20 October 2014 11:44:02
Eccentricity: 0.0540894
inclination: 99.0621°
perigee height: 911 km
apogee height: 1744 km
right ascension of ascending node: 233.1384°
argument of perigee: 70.0642°
revolutions per day: 12.83397303
mean anomaly at epoch: 42.7723°
orbit number at epoch: 15720

The dashed part of the orbit path shows where the satellite is in the earth's shadow,  

DLR